FDX1455 KATL-KMEM

Flight info

Callsign FDX1455
Flight time N/A
Altitude 30000
Route NASSA2 CHOOK WASER VANZE3
Aircraft B77L/H-SDE1E2E3FGHIJ2J3J4J5M1RWXY/LB1D1

Departure

Time 2026-05-08 02:44
Airport Hartsfield Jackson Atlanta International Airport (KATL)

Arrival

Time N/A
Airport Memphis International Airport (KMEM)
Time Latitude Longitude Altitude Speed Heading
2026-05-08 02:25 33.65514 -84.41651 1040 ft 0 kts 31°
2026-05-08 02:33 33.65500 -84.41660 1040 ft 4 kts 27°
2026-05-08 02:34 33.65476 -84.41674 1040 ft 4 kts 22°
2026-05-08 02:34 33.65451 -84.41686 1040 ft 3 kts 25°
2026-05-08 02:34 33.65432 -84.41699 1040 ft 4 kts 60°
2026-05-08 02:34 33.65429 -84.41727 1040 ft 4 kts 105°
2026-05-08 02:35 33.65432 -84.41741 1040 ft 1 kts 106°
2026-05-08 02:37 33.65428 -84.41725 1040 ft 3 kts 108°
2026-05-08 02:37 33.65414 -84.41686 1039 ft 7 kts 119°
2026-05-08 02:37 33.65383 -84.41624 1040 ft 9 kts 122°
2026-05-08 02:37 33.65349 -84.41560 1040 ft 9 kts 122°
2026-05-08 02:38 33.65316 -84.41495 1040 ft 9 kts 122°
2026-05-08 02:38 33.65282 -84.41429 1040 ft 10 kts 122°
2026-05-08 02:38 33.65227 -84.41371 1040 ft 11 kts 163°
2026-05-08 02:38 33.65157 -84.41339 1039 ft 11 kts 140°
2026-05-08 02:39 33.65120 -84.41262 1039 ft 11 kts 95°
2026-05-08 02:39 33.65119 -84.41160 1039 ft 16 kts 90°
2026-05-08 02:39 33.65108 -84.41001 1040 ft 19 kts 119°
2026-05-08 02:39 33.64993 -84.40968 1040 ft 17 kts 180°
2026-05-08 02:40 33.64874 -84.40959 1039 ft 17 kts 156°
2026-05-08 02:40 33.64846 -84.40828 1039 ft 17 kts 90°
2026-05-08 02:40 33.64845 -84.40684 1040 ft 17 kts 90°
2026-05-08 02:40 33.64807 -84.40578 1039 ft 13 kts 160°
2026-05-08 02:41 33.64781 -84.40574 1039 ft 0 kts 179°
2026-05-08 02:41 33.64780 -84.40574 1039 ft 2 kts 179°
2026-05-08 02:42 33.64719 -84.40577 1038 ft 13 kts 196°
2026-05-08 02:42 33.64678 -84.40664 1037 ft 5 kts 271°
2026-05-08 02:42 33.64679 -84.40691 1037 ft 0 kts 271°
2026-05-08 02:43 33.64680 -84.41038 1040 ft 94 kts 270°
2026-05-08 02:44 33.64677 -84.42161 1041 ft 180 kts 270°
2026-05-08 02:44 33.64654 -84.43847 1604 ft 216 kts 271°
2026-05-08 02:44 33.64637 -84.45756 2614 ft 239 kts 272°
2026-05-08 02:44 33.64781 -84.47777 3704 ft 246 kts 284°
2026-05-08 02:45 33.65250 -84.49774 4634 ft 250 kts 286°
2026-05-08 02:45 33.65712 -84.51768 5821 ft 246 kts 283°
2026-05-08 02:45 33.66121 -84.53736 7017 ft 241 kts 282°
2026-05-08 02:45 33.66504 -84.55703 8002 ft 243 kts 282°
2026-05-08 02:46 33.66881 -84.57694 8987 ft 244 kts 281°
2026-05-08 02:46 33.67238 -84.59664 9995 ft 246 kts 280°
2026-05-08 02:46 33.67581 -84.61697 10759 ft 255 kts 280°
2026-05-08 02:46 33.67952 -84.63893 11022 ft 283 kts 280°
2026-05-08 02:47 33.68362 -84.66321 11243 ft 311 kts 280°
2026-05-08 02:47 33.68804 -84.68921 11901 ft 322 kts 281°
2026-05-08 02:47 33.69252 -84.71565 12940 ft 323 kts 281°
2026-05-08 02:47 33.69694 -84.74196 14087 ft 320 kts 281°
2026-05-08 02:48 33.70060 -84.76833 14971 ft 322 kts 275°
2026-05-08 02:48 33.70146 -84.79552 15718 ft 329 kts 270°
2026-05-08 02:48 33.70115 -84.82313 16548 ft 332 kts 269°
2026-05-08 02:48 33.70066 -84.85095 17402 ft 334 kts 269°
2026-05-08 02:49 33.70024 -84.87901 18235 ft 337 kts 269°
2026-05-08 02:49 33.69993 -84.90736 18922 ft 341 kts 269°
2026-05-08 02:49 33.69971 -84.93558 19581 ft 344 kts 269°
2026-05-08 02:49 33.69956 -84.96450 20248 ft 348 kts 269°
2026-05-08 02:50 33.69945 -84.99368 20923 ft 351 kts 270°
2026-05-08 02:50 33.69935 -85.02326 21580 ft 355 kts 270°
2026-05-08 02:50 33.69926 -85.05302 22225 ft 358 kts 270°
2026-05-08 02:50 33.69916 -85.08307 22848 ft 361 kts 270°
2026-05-08 02:51 33.69905 -85.11335 23459 ft 365 kts 270°
2026-05-08 02:51 33.69894 -85.14394 23994 ft 368 kts 270°
2026-05-08 02:51 33.69882 -85.17476 24516 ft 370 kts 270°
2026-05-08 02:51 33.69869 -85.20578 25041 ft 373 kts 269°
2026-05-08 02:52 33.69852 -85.23701 25565 ft 375 kts 269°
2026-05-08 02:52 33.69823 -85.26843 26098 ft 377 kts 269°
2026-05-08 02:52 33.69787 -85.30003 26607 ft 380 kts 269°
2026-05-08 02:52 33.69750 -85.33188 27045 ft 383 kts 269°
2026-05-08 02:53 33.69712 -85.36395 27541 ft 386 kts 269°
2026-05-08 02:53 33.69673 -85.39623 28032 ft 388 kts 269°
2026-05-08 02:53 33.69634 -85.42884 28483 ft 391 kts 269°